User: anonymous   Login
Location: Wawayanda State Park
(41.1833°N, 74.4333°W)
Time: 10:15:37
(UTC-04:00)
Language:

RESURS DK-1 - Orbit

View from above orbital plane
View from above orbital plane
View from above satellite
View from above satellite

Ground track
Ground track

The orbit data is extracted from the following two-line orbital elements,

1 29228U 06021A   15125.11388341  .00000764  00000-0  66493-4 0  9994
2 29228 069.9373 266.5527 0001530 100.2428 259.8900 15.01452439491888
Epoch (UTC): 05 May 2015 02:43:59
Eccentricity: 0.0001530
inclination: 69.9373°
perigee height: 561 km
apogee height: 563 km
right ascension of ascending node: 266.5527°
argument of perigee: 100.2428°
revolutions per day: 15.01452439
mean anomaly at epoch: 259.8900°
orbit number at epoch: 49188

The dashed part of the orbit path shows where the satellite is in the earth's shadow,  

DLR